Keps
Threads by month
- ----- 2024 -----
- October
- September
- August
- July
- June
- May
- April
- March
- February
- January
- ----- 2023 -----
- December
- November
- October
- September
- August
- July
- June
- May
- April
- March
- February
- January
- ----- 2022 -----
- December
- November
- October
- September
- August
- July
- June
- May
- April
- March
- February
- January
- ----- 2021 -----
- December
- November
- October
- September
- August
- July
- June
- May
- April
- March
- February
- January
- ----- 2020 -----
- December
- November
- October
- September
- August
- July
- June
- May
- April
- March
- February
- January
- ----- 2019 -----
- December
- November
- October
- September
- August
- July
- June
- May
- April
- March
- February
- January
- ----- 2018 -----
- December
- November
- October
- September
- August
- July
- June
- May
- April
- March
- February
- January
- ----- 2017 -----
- December
- November
- October
- September
- August
- July
- June
- May
- April
- March
- February
- January
- ----- 2016 -----
- December
- November
- October
- September
- August
- July
- June
- May
- April
- March
- February
- January
- ----- 2015 -----
- December
- November
- October
- September
- August
- July
- June
- May
- April
- March
- February
- January
- ----- 2014 -----
- December
- November
- October
- September
- August
- July
- June
- May
- April
- March
- February
- January
- ----- 2013 -----
- December
- November
- October
- September
- August
- July
- June
- May
- April
- March
- February
- January
- ----- 2012 -----
- December
- November
- October
- September
- August
- July
- June
- May
- April
- March
- February
- January
- ----- 2011 -----
- December
- November
- October
- September
- August
- July
- June
- May
- April
- March
- February
- January
- ----- 2010 -----
- December
- November
- October
- September
- August
- July
- June
- May
- April
- March
- February
- January
- ----- 2009 -----
- December
- November
- October
- September
- August
- July
- June
- May
- April
- March
- February
- January
- ----- 2008 -----
- December
- November
- October
- September
- August
- July
- June
- May
- April
- March
- February
- January
- ----- 2007 -----
- December
- November
- October
- September
- August
- July
- June
- May
- April
- March
- February
- January
- ----- 2006 -----
- December
- November
- October
- September
October 2023
- 1 participants
- 8 discussions
SB KEPS @ AMSAT $ORB23300.1
2Line Orbital Elements 23300.AMSAT
QST de W1STR
AMSAT Orbital Elements for Amateur Satellites in TLE Format
>From Orbital Analysis Office
New England Sci-Tech STEM Education Center
Natick, MA October 27, 2023
To all radio amateurs
These element sets describe the orbits of various satellites
in use by the amateur radio community. For details see:
www.amsat.org/keplerian-elements-formats/
A daily update of element sets is available at:
www.amsat.org/tle/daily-bulletin.txt
or without bulletin text:
www.amsat.org/tle/dailytle.txt
AO-07
1 07530U 74089B 23299.72175477 -.00000023 00000-0 14827-3 0 9999
2 07530 101.9623 287.3490 0012143 170.8151 2.6947 12.53668454239899
UO-11
1 14781U 84021B 23299.50489446 .00001892 00000-0 22515-3 0 9999
2 14781 97.6745 271.5050 0009524 123.1991 237.0139 14.85481341113635
AO-16
1 20439U 90005D 23299.57656021 .00000251 00000-0 10837-3 0 9999
2 20439 98.8943 293.2508 0010808 173.3101 306.2435 14.33194755763723
LO-19
1 20442U 90005G 23299.55076211 .00000254 00000-0 10875-3 0 9993
2 20442 98.8607 278.9791 0012229 148.8288 211.3623 14.33350039764163
AO-27
1 22825U 93061C 23299.72020802 .00000161 00000-0 79590-4 0 9996
2 22825 98.8257 344.6360 0009204 49.4333 310.7648 14.30367469569368
IO-26
1 22826U 93061D 23299.55030071 .00000177 00000-0 85159-4 0 9992
2 22826 98.8204 344.3252 0009523 36.2174 323.9652 14.30735374569342
FO-29
1 24278U 96046B 23299.43588240 .00000037 00000-0 70415-4 0 9998
2 24278 98.5486 260.2051 0351203 76.5653 287.4373 13.53158311342685
NOAA-15
1 25338U 98030A 23299.61353569 .00000239 00000-0 11723-3 0 9995
2 25338 98.5956 326.3667 0009303 292.2397 67.7796 14.26418806323748
GO-32
1 25397U 98043D 23299.41282619 .00000158 00000-0 88747-4 0 9990
2 25397 98.8872 258.1039 0002320 103.3315 256.8122 14.23931327314000
ISS
1 25544U 98067A 23299.73834432 .00012114 00000-0 22245-3 0 9996
2 25544 51.6430 36.9300 0000901 114.1509 345.3507 15.49669802422198
NO-44
1 26931U 01043C 23299.81029190 .00000249 00000-0 12592-3 0 9991
2 26931 67.0507 216.9384 0006560 256.6449 103.3921 14.31023098152574
SO-50
1 27607U 02058C 23299.20168216 .00001559 00000-0 23090-3 0 9995
2 27607 64.5544 223.1343 0054406 196.0453 163.8930 14.77814643121589
CO-55
1 27844U 03031E 23299.53913994 .00000473 00000-0 22972-3 0 9999
2 27844 98.6805 304.8992 0010878 103.7224 256.5166 14.22931306 54417
CO-57
1 27848U 03031J 23299.45559746 .00000419 00000-0 20760-3 0 9998
2 27848 98.6839 305.1792 0010707 117.9702 242.2561 14.22421136 54167
RS-22
1 27939U 03042A 23299.76806701 .00001634 00000-0 28791-3 0 9993
2 27939 98.2620 87.9031 0013457 82.0213 28.7363 14.68880008 73858
NOAA-18
1 28654U 05018A 23299.84586688 .00000295 00000-0 18162-3 0 9994
2 28654 98.8992 13.5349 0014269 11.5638 348.5859 14.13038840950168
CO-58
1 28895U 05043F 23299.32948799 .00002057 00000-0 38133-3 0 9995
2 28895 98.1718 70.5703 0016475 22.8438 337.3495 14.66274550960021
CO-65
1 32785U 08021C 23299.77169730 .00005526 00000-0 52824-3 0 9993
2 32785 97.7228 263.1261 0012847 34.4633 325.7417 14.93583424840529
AAUSAT2
1 32788U 08021F 23299.36176594 .00015356 00000-0 10172-2 0 9998
2 32788 97.5737 276.2361 0004590 266.9451 93.1252 15.07391165842842
DO-64
1 32789U 08021G 23299.58439892 .00425246 00000-0 28995-2 0 9991
2 32789 97.2799 322.4319 0002946 99.3005 260.8593 15.73630204847828
CO-66
1 32791U 08021J 23299.36474008 .00007595 00000-0 63482-3 0 9992
2 32791 97.6715 268.1198 0011119 341.0570 19.0238 14.98738477841292
RS-30
1 32953U 08025A 23299.79164577 -.00000002 00000-0 -86708-4 0 9995
2 32953 82.5038 235.2284 0018209 258.3050 101.5986 12.43131026700009
PRISM
1 33493U 09002B 23299.63497378 .00012289 00000-0 76104-3 0 9998
2 33493 98.2386 323.6450 0013962 330.3815 29.6620 15.09873246803569
NOAA-19
1 33591U 09005A 23299.55297960 .00000248 00000-0 15800-3 0 9994
2 33591 99.0842 347.4867 0013167 230.7275 129.2729 14.12850117758493
SRMSAT
1 37841U 11058D 23299.28671324 .00000507 00000-0 13299-3 0 9995
2 37841 19.9707 137.3435 0011862 32.7388 124.7536 14.10969573621342
HRBE
1 37855U 11061F 23299.61116585 .00036514 00000-0 90386-3 0 9993
2 37855 101.7047 336.4219 0100181 355.3973 4.6323 15.35259145657134
RS-40
1 38735U 12041C 23299.55582249 .00000003 00000-0 -47003-4 0 9991
2 38735 82.4731 316.1830 0017559 14.4494 345.7084 12.42597198510036
ZACUBE-1
1 39417U 13066B 23299.78169379 .00004221 00000-0 47434-3 0 9999
2 39417 97.7024 257.0412 0052394 212.6798 147.1173 14.86251518536733
Delfi-N3xt
1 39428U 13066N 23299.31778563 .00004501 00000-0 62694-3 0 9997
2 39428 97.8327 219.6162 0109064 126.8312 234.2961 14.74176375531443
GOMX-1
1 39430U 13066Q 23299.64959534 .00002844 00000-0 49316-3 0 9999
2 39430 97.7595 183.0507 0142279 277.4204 81.0851 14.62570635528746
LO-74
1 39440U 13066AA 23299.81051913 .00005649 00000-0 71009-3 0 9993
2 39440 97.7854 244.4299 0072529 320.1356 39.4542 14.80617208534827
AO-73
1 39444U 13066AE 23299.78406930 .00005496 00000-0 58675-3 0 9990
2 39444 97.6885 259.7293 0050809 196.0626 163.8982 14.88260925535799
SPROUT
1 39770U 14029E 23299.37035653 .00036770 00000-0 22671-2 0 9992
2 39770 97.9996 71.2548 0006255 239.9129 120.1479 15.09827528511892
DTUSAT-2
1 40030U 14033W 23299.37603898 .00005683 00000-0 52994-3 0 9991
2 40030 97.9776 241.7805 0009423 207.9714 152.1001 14.94608016507583
EO-80
1 40032U 14033Y 23299.28392023 .00005121 00000-0 47777-3 0 9998
2 40032 97.9781 241.7034 0009072 208.9474 151.1244 14.94634197507542
HODOYOSHI-1
1 40299U 14070B 23299.56477700 .00016360 00000-0 44685-3 0 9993
2 40299 97.1787 358.9994 0010198 158.8501 201.3168 15.37425471498943
GRIFEX
1 40379U 15003D 23299.46681985 .00081404 00000-0 10652-2 0 9997
2 40379 99.0838 269.4086 0059778 169.8824 190.3644 15.56175411483672
XW-2C
1 40906U 15049H 23299.76494533 .00018560 00000-0 62960-3 0 9990
2 40906 97.4935 307.6893 0012747 64.0799 296.1754 15.30501152448496
XW-2D
1 40907U 15049J 23299.77772828 .00023769 00000-0 73580-3 0 9995
2 40907 97.4905 308.6683 0011488 58.2098 302.0262 15.33404037448612
LILACSAT-2
1 40908U 15049K 23299.57240660 .00007521 00000-0 33489-3 0 9990
2 40908 97.5284 302.4499 0015521 91.9662 268.3351 15.21642936447761
XW-2E
1 40909U 15049L 23299.61717256 .00059927 00000-0 10621-2 0 9995
2 40909 97.4440 316.5652 0006981 31.3156 328.8510 15.50039474449410
XW-2F
1 40910U 15049M 23299.54747707 .00059143 00000-0 10806-2 0 9998
2 40910 97.4539 315.7537 0007733 33.1253 327.0480 15.49168475449260
XW-2B
1 40911U 15049N 23299.53481747 .00020952 00000-0 65564-3 0 9995
2 40911 97.4883 308.7691 0011607 60.1950 300.0444 15.33085661448454
DCBB
1 40912U 15049P 23299.59018313 .00105860 00000-0 12529-2 0 9991
2 40912 97.4025 321.2232 0003505 338.8873 21.2239 15.60907601449970
IO-86
1 40931U 15052B 23299.46609700 .00001371 00000-0 99425-4 0 9992
2 40931 5.9994 229.2979 0013123 352.5880 7.4054 14.77434337436686
ChubuSat-2
1 41338U 16012B 23299.50047050 .00005092 00000-0 34145-3 0 9991
2 41338 31.0012 97.5649 0012264 47.1491 313.0175 15.05248900422179
ChubuSat-3
1 41339U 16012C 23299.57858239 .00004596 00000-0 30978-3 0 9996
2 41339 31.0078 94.4883 0012148 54.6681 305.5090 15.04990910422179
Horyu-4
1 41340U 16012D 23299.03523138 .00009568 00000-0 56416-3 0 9995
2 41340 31.0039 60.3763 0011450 113.5215 246.6628 15.10236474422504
e-st@r-II
1 41459U 16025D 23299.54837324 .00052040 00000-0 11189-2 0 9991
2 41459 98.1664 155.0129 0086675 0.0016 0.1213 15.40496537413044
Lapan A3
1 41603U 16040E 23299.60891565 .00003293 00000-0 14146-3 0 9996
2 41603 97.1589 319.1146 0011560 204.4978 155.5711 15.23291893407499
